STARLINK-32185, 60341

Orbit data source: Space-Track

STARLINK-32185, 60341 is a payload satellite owned by SpaceX/Seattle (US) in LEO that was launched on Fri, 02 Aug 2024 UTC via an FALCON 9 launch vehicle from the Air Force Eastern Test Range (AFETR). Payload-class satellites include a variety of spacecraft equipped with specific instruments for various scientific and technological missions. These include communications satellites like Starlink; space stations such as the ISS; scientific satellites like the Hubble; Earth observation satellites from companies like Planet Labs, Umbra, and HawkEye 360; GPS; miniature CubeSats for education and research; and military/defense satellites.

Loading next visibility...
Identifier
60341, 2024-136N
Orbit
LEO
Last TLE update
15 hours ago
Origin
Manufacturer
SpaceX/Seattle
Mission
Operational Commercial Communications
Bus & Motor
STARLINK V2M, Unknown motor
Mass
730 kg wet, ~700 kg dry
Launch date (UTC)
2024-08-02 (9 months ago)
Launch vehicle
FALCON 9
Launch site
Air Force Eastern Test Range (AFETR)
Object type
Payload
Rocket body
Debris
Shape & HBR
Box + 2 Pan, 29 m
Radar Cross Section
33.884 m², Large (>1 m²)

Expand to show TLE details & history

TLE from 15 hours ago
0 STARLINK-32185
1 60341U 24136N   25132.90142173 -.00000664  00000-0 -10283-4 0  9996
2 60341  53.1608  32.7133 0001264 106.7990 253.3150 15.30188385 43618
Epoch: 2025-05-12T21:38Z
Definitive object data (Epoch: 2025-05-12T21:38:02.837Z)
Latitude
0.00002°
Longitude
-162.70636°
Altitude
476.398 km
Speed
7.629 km/s
True Right ascension
02h 10m 51s
True Declination
0° 00' 00"
Sunlit
Object was in daylight at TLE epoch
Visualization TLE readout
Latitude
-9.83302°
Longitude
21.81993°
Altitude
477.848 km
Speed
7.627 km/s
Apparent Right ascension
12h 16m 16s
Apparent Declination
-30° 32' 54"
Sunlit
Object is in full shadow
Visualization observer readout
Local Sidereal Time
21:00:18
Azimuth
267.602° W
Elevation
-49.426°
Doppler factor
1
Orbital elements
Apogee altitude
476.372 km
Perigee altitude
474.64 km
Semi-major axis
6,853.643 km
Eccentricity
0.0001264
Inclination
53.1608°
RAAN
32.7133°
Arg. of periapsis
106.799°
True anomaly
253.30113°
Mean anomaly
253.315°
Eccentric anomaly
253.30806°
Mean motion
3.82526 °/min
BSTAR
-0.000010283
Orbital period
94.11 mins
Loading maneuver chart data...
Loading SW <> Apogee altitude chart data...
Loading historical data...
Loading historical data...
Loading historical data...
Loading historical data...
Loading historical data...
Loading historical data...
Loading historical data...

STARLINK-32185 Visibility forecast

Observer location: undefined°, undefined°

Span
Click to sort rows by Start time (UTC) header in descending order
Start Az.
Max El. time (UTC)
Max El. Az.
Max El.
End time (UTC)
End Az.
7 mins2025-05-13 19:44:41.733Z219.472° SW2025-05-13 19:47:41.733Z183.759° SSW40.409°2025-05-13 19:51:41.733Z54.988° ENE
4 mins2025-05-13 21:24:41.733Z299.025° NW2025-05-13 21:26:41.733Z342.945° N19.705°2025-05-13 21:28:41.733Z20.483° NNE
6 mins2025-05-14 02:20:41.733Z321.874° NNW2025-05-14 02:23:41.733Z71.209° E37.763°2025-05-14 02:26:41.733Z115.91° SE
|